Regional Weather Roundup
Issued by NWS Grand Forks, ND

Home | Current Version | Previous Version | Text Only | Print | Product List | Glossary Off
Versions: 1 2 3 4 5 6 7 8 9 10 11 12 13 14 15 16 17 18 19 20 21 22 23 24 25 26 27 28 29 30 31 32 33 34 35 36 37 38 39 40 41 42 43 44 45 46 47 48 49 50

000
ASUS43 KFGF 261210
RWRFGF
PRAIRIE TO PINES  WEATHER ROUNDUP
NATIONAL WEATHER SERVICE EASTERN NORTH DAKOTA/GRAND FORKS ND
700 AM CDT FRI AUG 26 2016

 **SATELLITE DATA USED TO AUGMENT SKY COVER AT AUTOMATED STATIONS**
 *****  WEATHER ACROSS EASTERN NORTH DAKOTA  *****

CITY           SKY/WX    TMP DP  RH WIND       PRES   REMARKS
GRAND FORKS    PTCLDY    50  46  86 CALM      30.07S
6HR MIN TEMP:  47; 6HR MAX TEMP:  51;

GRAND FRKS AFB CLEAR     50  47  89 SW6       30.07S
DEVILS LAKE    CLEAR     57  49  74 SW9       30.07S
6HR MIN TEMP:  56; 6HR MAX TEMP:  61;

FARGO          CLEAR     50  47  89 S7        30.11R
WAHPETON ARPT  SUNNY     48  45  87 S3        30.14R
$$

 ***** WEATHER ACROSS CENTRAL AND WESTERN NORTH DAKOTA  *****

CITY           SKY/WX    TMP DP  RH WIND       PRES   REMARKS
BISMARCK       CLEAR     45  43  93 CALM      30.13R
6HR MIN TEMP:  41; 6HR MAX TEMP:  52;

MINOT          PTCLDY    54  44  69 SW10      30.04S
6HR MIN TEMP:  54; 6HR MAX TEMP:  60;

JAMESTOWN      CLEAR     49  46  90 SW6       30.11R
6HR MIN TEMP:  47; 6HR MAX TEMP:  56;

MINOT AFB      MOCLDY    53  44  73 SW8       30.02F
GARRISON         N/A     47  46  97 S5        30.08S
WILLISTON      CLEAR     48  41  76 CALM      30.06F
6HR MIN TEMP:  46; 6HR MAX TEMP:  57;

DICKINSON      CLOUDY    45  39  79 SW9       30.09F
6HR MIN TEMP:  43; 6HR MAX TEMP:  51;

HETTINGER      CLOUDY    46  41  82 CALM      30.14F
6HR MIN TEMP:  38; 6HR MAX TEMP:  52;

$$

 *****  OTHER AIRPORT OBSERVATIONS IN OUR AREA  *****

CITY           SKY/WX    TMP DP  RH WIND       PRES   REMARKS
WALHALLA       NOT AVBL
GRAFTON AIRPOR FAIR      45  45 100 S5        30.08S
VALLEY CITY AR FAIR      46  46 100 S5        30.13R
CANDO          NOT AVBL
CAVALIER APRT  FAIR      45  45 100 CALM      30.05S
GWINNER        FAIR      48  48 100 SW8       30.14R
ROLLA          FAIR      46  43  87 SW6       30.05S
 ***** THE ABOVE OBSERVATIONS ARE NON NWS ARE NOT QUALITY
       CONTROLLED AND MAY MIS-REPORT RAIN FOR SNOW...
$$

  *****  WEATHER ACROSS NORTHERN MINNESOTA  *****

CITY           SKY/WX    TMP DP  RH WIND       PRES   REMARKS
FLAG ISLAND    CLEAR     55  48  76 CALM      30.06R
WARROAD        CLEAR     46  43  87 S5        30.08S
ROSEAU         CLEAR     43  39  87 S5        30.08R FOG
HALLOCK        PTCLDY    46  45  93 SE7       30.06S
THF RVR FALLS  CLEAR     47  46  97 S5        30.10S
6HR MIN TEMP:  47; 6HR MAX TEMP:  52;

BAUDETTE       CLEAR     46  45  96 CALM      30.08R
6HR MIN TEMP:  45; 6HR MAX TEMP:  52;

WASKISH        PTCLDY    48  48 100 CALM      30.10S
CROOKSTON      CLEAR     46  45  93 SE7       30.10S
STEPHEN NDAWN    N/A     48  46  93 S2          N/A
GREENBUSH NDAW   N/A     45  45 100 S2          N/A
$$
  *****  WEATHER ACROSS CENTRAL AND WEST MINNESOTA  *****

CITY           SKY/WX    TMP DP  RH WIND       PRES   REMARKS
FOSSTON        CLEAR     46  46 100 S6        30.11F
BEMIDJI        CLEAR     47  46  98 W3        30.11S
PARK RAPIDS    CLEAR     51  48  89 CALM      30.13R
6HR MIN TEMP:  50; 6HR MAX TEMP:  54;

ELBOW LAKE     FAIR      49  49 100 S7        30.16R
WADENA         NOT AVBL
DETROIT LAKES  CLEAR     54  50  87 SW3       30.14R
MOORHEAD       CLEAR     48  46  93 S5        30.13R
FERGUS FALLS   CLEAR     50  50 100 S3        30.16S FOG
MORRIS MN      FOG       48  46  93 CALM      30.15S VSB 3/4
STAPLES        CLEAR     48  48 100 CALM      30.14S
$$
  *****  WEATHER ELSEWHERE ACROSS MINNESOTA  *****

CITY           SKY/WX    TMP DP  RH WIND       PRES   REMARKS
DULUTH         PTCLDY    53  51  93 NW6       30.13R
6HR MIN TEMP:  53; 6HR MAX TEMP:  58;

INTRNTL FALLS  CLEAR     41  40  96 CALM      30.10R
6HR MIN TEMP:  39; 6HR MAX TEMP:  47;

ELY            CLOUDY    48  46  93 CALM      30.13R FOG
CLOQUET        CLEAR     52  48  87 W5        30.14R
WHEATON        CLEAR     50  48  93 CALM      30.16S
BRAINERD       CLEAR     49  49 100 S6        30.15R FOG
6HR MIN TEMP:  49; 6HR MAX TEMP:  54;

HIBBING        FOG       46  46 100 CALM      30.13S VSB 1/2
6HR MIN TEMP:  45; 6HR MAX TEMP:  56;

ALEXANDRIA     CLEAR     51  50  96 CALM      30.17R
6HR MIN TEMP:  51; 6HR MAX TEMP:  57;

SAINT CLOUD    CLEAR     49  49 100 CALM      30.15S FOG
6HR MIN TEMP:  48; 6HR MAX TEMP:  57;

MINNEAPOLIS    PTCLDY    57  53  86 SW3       30.17R
6HR MIN TEMP:  57; 6HR MAX TEMP:  61;

$$

  *****  WEATHER ACROSS SOUTH DAKOTA  *****

CITY           SKY/WX    TMP DP  RH WIND       PRES   REMARKS
SIOUX FALLS    CLOUDY    49  49 100 NE5       30.19R
6HR MIN TEMP:  49; 6HR MAX TEMP:  55;

BROOKINGS      CLEAR     46  45  96 CALM      30.19R
WATERTOWN      CLEAR     48  46  93 CALM      30.17S
6HR MIN TEMP:  48; 6HR MAX TEMP:  54;

HURON          CLEAR     45  43  93 CALM      30.17S
6HR MIN TEMP:  45; 6HR MAX TEMP:  53;

SISSETON         N/A     48  46  93 S3        30.14R
ABERDEEN       CLEAR     44  42  93 CALM      30.16R
6HR MIN TEMP:  42; 6HR MAX TEMP:  50;

MITCHELL       FOG       48  47  96 CALM      30.19R VSB 3/4
PIERRE         CLOUDY    51  48  89 CALM      30.16R
6HR MIN TEMP:  45; 6HR MAX TEMP:  51;

MOBRIDGE       PTCLDY    52  47  83 S8        30.13R
RAPID CITY     HVY RAIN  53  51  93 W5        30.18F
6HR MIN TEMP:  50; 6HR MAX TEMP:  54; 6HR PCP:  0.46;

$$

  *****  SOME WEATHER IN NEARBY STATES *****

CITY           SKY/WX    TMP DP  RH WIND       PRES   REMARKS
GLASGOW MT     CLOUDY    54  48  80 NW13      30.05R
6HR MIN TEMP:  53; 6HR MAX TEMP:  58; 6HR PCP: TRACE;

GREAT FALLS MT CLOUDY    48  42  80 W3        30.16F
6HR MIN TEMP:  45; 6HR MAX TEMP:  55;

CHEYENNE WY    CLOUDY    51  47  86 E3        30.20R
6HR MIN TEMP:  51; 6HR MAX TEMP:  54;

SCOTTSBLUFF NE PTCLDY    55  50  83 CALM      30.13S
6HR MIN TEMP:  55; 6HR MAX TEMP:  58;

OMAHA NE       CLOUDY    59  56  89 NW5       30.16S
6HR MIN TEMP:  58; 6HR MAX TEMP:  63;

DES MOINES IA  CLOUDY    65  59  81 E8        30.16R
6HR MIN TEMP:  63; 6HR MAX TEMP:  66;

DAVENPORT IA   CLOUDY    63  60  90 N8        30.16R
6HR MIN TEMP:  61; 6HR MAX TEMP:  64;

CHICAGO IL     MOCLDY    66  61  84 N6        30.14R
6HR MIN TEMP:  66; 6HR MAX TEMP:  69;

EAU CLAIRE WI  CLEAR     54  53  97 SW3       30.15R
6HR MIN TEMP:  53; 6HR MAX TEMP:  58;

LA CROSSE WI   CLEAR     59  57  93 SE3       30.17R
6HR MIN TEMP:  58; 6HR MAX TEMP:  64;

$$

  *****  SOME NATIONAL WEATHER *****

CITY           SKY/WX    TMP DP  RH WIND       PRES   REMARKS
LA GUARDIA NY  CLOUDY    79  71  76 SW10      29.98S
6HR MIN TEMP:  77; 6HR MAX TEMP:  80;

RALEIGH NC     MOSUNNY   76  71  85 SW6       30.10S
6HR MIN TEMP:  72; 6HR MAX TEMP:  77;

ATLANTA GA     PTCLDY    79  71  76 NE5       30.12S
6HR MIN TEMP:  76; 6HR MAX TEMP:  80;

NEW ORLEANS LA MOCLDY    78  73  84 N5        30.02R
6HR MIN TEMP:  76; 6HR MAX TEMP:  83; 6HR PCP:  0.17;

OKLAHOMA CITY  CLOUDY    69  66  90 NE3       30.07F
6HR MIN TEMP:  69; 6HR MAX TEMP:  73;

ALBUQUERQUE NM CLOUDY    61  55  81 NW9       30.21R
6HR MIN TEMP:  61; 6HR MAX TEMP:  72;

SALT LAKE CITY FAIR      66  39  37 SE7       30.02S
6HR MIN TEMP:  66; 6HR MAX TEMP:  71;

LOS ANGELES CA CLOUDY    66  57  72 E7        29.92S
6HR MIN TEMP:  65; 6HR MAX TEMP:  67;

BOISE ID       FAIR      57  35  43 S5        29.96S
6HR MIN TEMP:  57; 6HR MC1F1C2F2C3F3C4F4C5F5C6F6C7F7C8F8C9F9CaFaCbFbCcFcCd!



USA.gov is the U.S. government's official web portal to all federal, state and local government web resources and services.